Погода в Ушаках

Россия / Санкт-Петербург и Ленинградская область     59°30′57″N   30°54′03″E
темп.,
°C
ветер,
м/с
пор.,
м/с
влажн.,
%
обл.,
%
осадки,
мм/ч
давл.,
гПа
погр.,
м
27 ноября, сб
сб2700:00−2юз1289100 0.0 100265
03:00−1св1290100 0.1 1003186
06:00−2св2592100 0.4 1004302
09:00−3св3889100 0.7 1005378
12:00−2св3980100 0.1 1005497
15:00−2св51179100 0.1 1003565
18:00−3св51382100 0.1 1001558
21:00−3ссв51492100 0.9 1000520
28 ноября, вс
вс2800:00−3ссв51493100 1.2 998614
03:00−3ссв51293100 2.1 998620
06:00−3ссв41192100 0.6 997642
09:00−3ссв41094100 1.3 998588
12:00−3ссв3994100 1.5 999597
15:00−3ссв3794100 3.0 1001529
18:00−4ссв269578 0.3 1003354
21:00−6св2696100 0.3 1005246
29 ноября, пн
пн2900:00−7всв1497100 0.0 1008101
03:00−8всв279664 0.0 1009224
06:00−8всв2895100 0.0 1009304
09:00−7всв3990100 0.0 1008397
12:00−7всв3986100 0.0 1007365
15:00−7св4988100 0.0 1004357
18:00−7св41192100 0.1 1001390
21:00−6св41293100 0.6 996443
30 ноября, вт
вт3000:00−6св41194100 0.9 992456
03:00−6ссв41194100 3.8 988436
06:00−5ссв4995100 2.0 984389
09:00−5ссв3995100 2.9 982420
12:00−4с3995100 0.9 980574
15:00−3ссз4995100 2.1 980752
18:00−5сз4992100 0.8 981596
21:00−7зсз4109291 0.8 982515
1 декабря, ср
ср100:00−9з399216 0.0 983295
03:00−7з399497 0.2 984453
06:00−7зюз4119389 0.1 985484
09:00−8юз4119387 0.2 986421
12:00−7юз4119069 0.0 987477
15:00−7юз4119081 0.1 987482
18:00−6юз4109198 0.1 988532
21:00−7юз41093100 0.1 988419